User: anonymous   Login
Location: Azul
(36.7830°S, 59.8500°W)
Time: 00:52:20
(UTC-03:00)
Language:

UWE-3 - Orbit

View from above orbital plane
View from above orbital plane
View from above satellite
View from above satellite

Ground track
Ground track

The orbit data is extracted from the following two-line orbital elements,

1 39446U 13066AG  21295.42684289  .00000407  00000-0  59734-4 0  9997
2 39446  97.6530 265.4067 0070324 144.2833 216.3113 14.78894813425279
Epoch (UTC): 22 October 2021 10:14:39
Eccentricity: 0.0070324
inclination: 97.6530°
perigee height: 583 km
apogee height: 682 km
right ascension of ascending node: 265.4067°
argument of perigee: 144.2833°
revolutions per day: 14.78894813
mean anomaly at epoch: 216.3113°
orbit number at epoch: 42527

The dashed part of the orbit path shows where the satellite is in the earth's shadow,  

DLR